www.pogodaiklimat.ru

Погода и климат >> Архив погоды >> Австралия >> Новый Южный Уэльс >> Дениликин


ПОГОДА в Дениликине

  • Прогноз погоды в Дениликине
  • Монитор погоды в Дениликине

АРХИВ ПОГОДЫ в Дениликине

Время (UTC), дата Ветер
(напр.,м/с)
 
Видим.   Явления Облачность Т
(С)
Тd
(С)
f
(%)
Тe
(С)
Тes
(С)
Комфортность P
(гПа)
Po
(гПа)
Тmin
(С)
Tmax
(С)
R
(мм)
R24
(мм)
S
(см)
16 12.06 СЗ 3 н/о н/о +12.2 +11 +11 1015.7 1004.2
17 12.06 СЗ 4 н/о {туман} н/о +12.2 +11 +11 1015.7 1004.2
19 12.06 СЗ 3 н/о н/о +10.2 +9 +9 1016.0 1004.5
20 12.06 СЗ 3 н/о н/о +10.8 +10 +10 1016.5 1005.0
22 12.06 З 1 н/о н/о +8.5 +9 +9 1018.1 1006.6
23 12.06 З 3 н/о н/о +9.8 +9 +9 1019.0 1007.5
01 13.06 СЗ 4 н/о н/о +11.1 +10 +10 1019.4 1007.9
02 13.06 З 5 н/о н/о +12.1 +11 +11 1019.0 1007.5 +8.0
04 13.06 З 4 н/о н/о +14.7 +10.1 74 +13 +13 1017.8 1006.3
05 13.06 З 4 н/о н/о +15.4 +9.1 66 +15 +15 1017.8 1006.3
07 13.06 З 3 н/о н/о +13.4 +8.3 71 +12 +12 1018.5 1007.0
08 13.06 СЗ 2 н/о н/о +11.5 +8.2 80 +10 +10 1018.7 1007.2
10 13.06 С 2 н/о н/о +10.2 +8.1 87 +9 +9 1019.8 1008.3
11 13.06 С 3 н/о н/о +9.1 +8.6 97 +7 +7 1019.8 1008.3
13 13.06 С 3 н/о н/о +9.0 +8.2 95 +6 +6 1020.3 1008.8
14 13.06 С 3 н/о н/о +8.3 +7.7 96 +5 +5 1019.8 1008.3 +15.9
16 13.06 С 3 н/о н/о +7.2 +7.2 100 +4 +4 1019.5 1008.0
17 13.06 С 3 н/о н/о +6.8 +6.8 100 +3 +3 1019.7 1008.2
19 13.06 С 2 н/о н/о +6.6 +6 +6 1019.9 1008.4
20 13.06 С 2 н/о н/о +6.6 +6 +6 1019.8 1008.3
22 13.06 С 2 н/о н/о +7.7 +7 +7 1020.6 1009.0
23 13.06 С 4 н/о н/о +9.5 +9.5 100 +7 +7 1021.2 1009.6
01 14.06 С 4 н/о н/о +13.5 +10.9 84 +12 +12 1021.4 1009.8
02 14.06 С 4 н/о н/о +15.1 +10.5 74 +14 +14 1020.6 1009.0 +6.2
04 14.06 З 4 н/о н/о +15.2 +9.3 68 +14 +14 1019.2 1007.7
05 14.06 СЗ 5 н/о {туман} н/о +15.9 +8.2 60 +15 +15 1018.9 1007.4
07 14.06 СЗ 3 н/о н/о +13.8 +7.6 66 +13 +13 1019.3 1007.8
08 14.06 СЗ 2 н/о н/о +11.7 +7.6 76 +11 +11 1019.8 1008.3
10 14.06 С 2 н/о н/о +11.7 +8.7 82 +11 +11 1020.7 1009.1
11 14.06 С 3 н/о н/о +11.3 +9.0 86 +9 +9 1021.0 1009.4
13 14.06 З 2 н/о н/о +9.7 +8.1 90 +8 +8 1021.1 1009.5
14 14.06 З 1 н/о н/о +7.8 +8 +8 1021.0 1009.4 +16.8
16 14.06 З 3 н/о н/о +5.6 +4 +4 1020.8 1009.2
17 14.06 штиль 0 н/о н/о +5.9 +6 +6 1020.9 1009.3
19 14.06 штиль 0 н/о н/о +5.3 +6 +6 1021.0 1009.4
20 14.06 СЗ 2 н/о н/о +6.4 +6 +6 1021.6 1010.0
22 14.06 В 2 н/о н/о +7.6 +7 +7 1022.4 1010.8
23 14.06 СВ 2 н/о н/о +10.4 +10 +10 1022.9 1011.3
01 15.06 С 3 н/о н/о +12.9 +8.8 76 +12 +12 1023.1 1011.5
02 15.06 С 3 н/о н/о +13.5 +8.8 73 +12 +12 1022.6 1011.0 +4.1
04 15.06 С 3 н/о н/о +14.9 +8.8 67 +14 +14 1021.3 1009.7
05 15.06 СЗ 3 н/о н/о +15.2 +8.2 63 +15 +15 1021.2 1009.6
07 15.06 штиль 0 н/о н/о +13.4 +9.5 77 +13 +13 1021.6 1010.0
08 15.06 СВ 1 н/о н/о +12.3 +10.2 87 +13 +13 1021.8 1010.2
10 15.06 В 2 н/о н/о +9.5 +9.5 100 +8 +8 1022.6 1011.0
11 15.06 СВ 1 н/о н/о +8.5 +9 +9 1022.8 1011.2
13 15.06 СВ 2 н/о н/о +8.3 +8 +8 1022.5 1010.9
14 15.06 штиль 0 н/о н/о +9.5 +10 +10 1022.4 1010.8 +16.0
16 15.06 ЮВ 2 н/о н/о +7.6 +7 +7 1021.9 1010.3
17 15.06 В 3 н/о н/о +6.3 +5 +5 1021.8 1010.2
19 15.06 С 2 н/о н/о +8.4 +8 +8 1021.7 1010.1
20 15.06 С 2 н/о н/о +7.7 +8 +8 1022.1 1010.5
22 15.06 СВ 3 н/о н/о +7.2 +6 +6 1023.3 1011.7
23 15.06 В 2 н/о н/о +8.7 +8 +8 1023.7 1012.1
01 16.06 В 3 н/о н/о +12.7 +9.9 83 +11 +11 1023.9 1012.3
02 16.06 СВ 3 н/о н/о +14.0 +9.4 74 +13 +13 1023.3 1011.7 +6.2
04 16.06 С 2 н/о н/о +16.1 +8.8 62 +16 +16 1022.1 1010.5
05 16.06 СВ 2 н/о н/о +16.8 +8.8 59 +17 +17 1021.9 1010.3
07 16.06 ЮВ 4 н/о н/о +11.6 +7.1 74 +9 +9 1022.4 1010.8
08 16.06 В 2 н/о н/о +9.9 +8.3 90 +8 +8 1022.7 1011.1
10 16.06 штиль 0 н/о н/о +7.3 +7.3 100 +6 +6 1023.6 1012.0
11 16.06 штиль 0 н/о н/о +6.5 +7 +7 1023.9 1012.3
13 16.06 СЗ 1 н/о н/о +5.2 +7 +7 1024.0 1012.4
14 16.06 штиль 0 н/о н/о +4.3 +5 +5 1024.0 1012.4 +17.2
16 16.06 штиль 0 н/о н/о +3.2 +4 +4 1023.6 1012.0
17 16.06 СЗ 2 н/о н/о +3.7 +3 +3 1023.4 1011.8
19 16.06 штиль 0 н/о н/о +3.4 +4 +4 1023.6 1012.0
20 16.06 штиль 0 н/о н/о +3.2 +4 +4 1023.6 1012.0
22 16.06 штиль 0 н/о н/о +2.7 +3 +3 1024.6 1013.0
23 16.06 штиль 0 н/о {туман} н/о +5.5 +6 +6 1024.7 1013.1
01 17.06 штиль 0 н/о н/о +12.5 +13 +13 1024.5 1012.9
02 17.06 СВ 1 н/о н/о +14.3 +9.9 75 +15 +15 1023.8 1012.2 +2.4
04 17.06 СЗ 2 н/о н/о +15.2 +8.0 62 +15 +15 1022.3 1010.7
05 17.06 СЗ 3 н/о н/о +16.1 +6.8 54 +16 +16 1022.3 1010.7
07 17.06 СЗ 2 н/о н/о +13.7 +6.6 62 +13 +13 1022.1 1010.5
08 17.06 СЗ 2 н/о н/о +11.2 +6.5 73 +10 +10 1022.1 1010.5
10 17.06 СВ 3 н/о н/о +6.4 +5 +5 1022.3 1010.7
11 17.06 СВ 3 н/о н/о +6.0 +5 +5 1022.2 1010.6
13 17.06 С 3 н/о н/о +8.3 +6.9 91 +5 +5 1021.6 1010.0
14 17.06 С 4 н/о н/о +8.2 +6.8 91 +5 +5 1021.3 1009.7 +16.4
16 17.06 С 4 н/о н/о +7.7 +6.6 93 +4 +4 1020.3 1008.8
17 17.06 С 4 н/о н/о +7.6 +7.0 96 +4 +4 1020.1 1008.6
19 17.06 С 4 н/о н/о +8.6 +6.9 89 +5 +5 1019.2 1007.7
20 17.06 С 5 н/о н/о +8.8 +6.4 85 +5 +5 1019.3 1007.8
22 17.06 С 5 н/о н/о +8.1 +6.2 88 +4 +4 1019.7 1008.2
23 17.06 С 4 н/о н/о +9.1 +6.7 85 +6 +6 1020.1 1008.6
01 18.06 З 6 н/о н/о +11.0 +6.9 76 +8 +8 1020.9 1009.3
02 18.06 СЗ 4 н/о н/о +11.3 +8.2 81 +9 +9 1020.3 1008.8 +5.9
04 18.06 З 5 н/о н/о +13.4 +7.4 67 +12 +12 1019.6 1008.1
05 18.06 З 6 н/о н/о +12.8 +7.0 68 +10 +10 1019.7 1008.2
07 18.06 З 5 н/о н/о +10.9 +4.6 65 +8 +8 1020.7 1009.1
08 18.06 ЮЗ 6 н/о н/о +8.4 +5.0 79 +5 +5 1021.7 1010.1
10 18.06 З 4 н/о н/о +5.6 +5.6 100 +1 +1 1023.0 1011.4
11 18.06 З 3 н/о н/о +4.1 +2 +2 1023.4 1011.8
13 18.06 З 2 н/о н/о +3.1 +2 +2 1023.7 1012.1
14 18.06 З 3 н/о н/о +2.4 0 0 1024.0 1012.4 +13.9
16 18.06 З 3 н/о н/о +2.5 0 0 1024.6 1013.0
17 18.06 З 3 н/о н/о +2.0 -1 -1 1024.8 1013.2
19 18.06 З 2 н/о н/о +0.7 -1 -1 1024.4 1012.8
20 18.06 З 3 н/о {туман} н/о +0.2 -3 -3 1025.0 1013.4
22 18.06 З 3 н/о н/о +0.9 -1 -1 1026.2 1014.6
23 18.06 ЮЗ 2 н/о {туман} н/о +3.6 +2 +2 1026.8 1015.2
01 19.06 ЮЗ 5 н/о н/о +8.4 +5.9 84 +5 +5 1027.6 1016.0
02 19.06 ЮЗ 6 н/о н/о +9.9 +5.3 73 +7 +7 1026.8 1015.2 -0.2
04 19.06 З 4 н/о н/о +10.9 +4.1 63 +9 +9 1026.0 1014.4
05 19.06 ЮЗ 5 н/о н/о +11.5 +2.5 54 +9 +9 1025.8 1014.2
07 19.06 ЮЗ 4 н/о н/о +9.0 +2.6 64 +6 +6 1025.7 1014.1
08 19.06 З 3 н/о н/о +7.0 +3.3 77 +4 +4 1026.0 1014.4
10 19.06 З 3 н/о н/о +5.1 +3.0 86 +2 +2 1026.3 1014.7
11 19.06 штиль 0 н/о н/о +5.2 +3.9 91 +4 +4 1026.2 1014.6
13 19.06 З 3 н/о н/о +3.3 +2.3 93 -0 -0 1026.2 1014.6
14 19.06 З 1 н/о н/о +2.6 +4 +4 1026.0 1014.4 +12.1
16 19.06 З 2 н/о н/о +1.4 0 0 1025.5 1013.9

 

Местоположение метеостанции Дениликин (Новый Южный Уэльс, Австралия): широта -35.57 долгота 144.95 высота над уровнем моря 95 м.

В архиве по умолчанию представлена погода в Дениликине за последнюю неделю. Архивные данные за месяц целиком и за предыдущие месяцы, начиная с января 2011 года, Вы можете получить, выбрав интересующий диапазон дат из раскрывающегося списка и нажав кнопку "Ввод!".


*Определитесь, кто Вы:
робот инопланетянин человек

Внимание! Время в таблицах - всемирное. Для получения местного времени необходимо прибавить поправку, которая равна 10 ч.

Смотрите также архив погоды в соседних городах и на ближайших метеорологических станциях:

Погода в Кайабраме (Виктория, Австралия) (85 км)
Погода в Татуре (Виктория, Австралия) (100 км)
Погода в Шеппартоне (Виктория, Австралия) (104 км)
Погода в Ярравонге (Виктория, Австралия) (110 км)
Погода в Хее (Новый Южный Уэльс, Австралия) (116 км)
Погода в Суон-Хилле (Виктория, Австралия) (130 км)
Погода в Бендиго (Виктория, Австралия) (141 км)
Погода в Мангалоре (Виктория, Австралия) (147 км)
Погода в Рутерглене (Виктория, Австралия) (152 км)
Погода в Вангаратте (Виктория, Австралия) (154 км)

Пояснения к столбцам:

Ветер - указаны скорость ветра в м/с - средняя за 10 мин, порывы в срок и между сроками (в фигурных скобках) и направление, откуда дует ветер: С - северный, СВ - северо-восточный, В - восточный, ЮВ - юго-восточный, Ю - южный, ЮЗ - юго-западный, З - западный, СЗ - северо-западный.
Видимость - горизонтальная дальность видимости в метрах или километрах. При видимости от 1 до 10 км при отсутствии осадков обычно наблюдается дымка, при ухудшении видимости до 1 км и менее - туман. В сухую погоду видимость может ухудшаться дымом, пылью или мглою.
Явления - указаны атмосферные явления, наблюдавшиеся в срок или в последний час перед сроком; фигурными скобками обозначены явления, наблюдавшиеся между сроками (за 1-3 часа до срока); квадратными скобками обозначены град или гололедные отложения с указанием их диаметра в мм.
Облачность - указаны через наклонную черту общая и нижняя облачность в баллах и высота нижней границы облаков в метрах; квадратными скобками обозначены формы облаков: Ci - перистые, Cs - перисто-слоистые, Cc - перисто-кучевые, Ac - высококучевые, As - высокослоистые, Sc - слоисто-кучевые, Ns - слоисто-дождевые, Cu - кучевые, Cb - кучево-дождевые. Подробнее классификацию облаков см. в Атласе облаков (PDF).
T - Температура воздуха - температура, измеренная на высоте 2 м над землей.
Td - Температура точки росы - температура, при понижении до которой содержащийся в воздухе водяной пар достигнет насыщения.
f - Относительная влажность воздуха - влажноcть воздуха, измеренная на высоте 2 м над землей.
Te - Эффективная температура - температура, которую ощущает одетый по сезону человек в тени. Характеристика душности погоды. При расчете учитывается влияние влажности воздуха и скорости ветра на теплоощущения человека.
Tes - Эффективная температура на солнце - температура, которую ощущает человек, с поправкой на солнечный нагрев. Характеристика знойности погоды. Зависит от высоты солнца над горизонтом, облачности и скорости ветра. Ночью, в пасмурную погоду, а также при ветре 12 м/с и более поправка равна нулю.
P - Атмосферное давление - приведенное к уровню моря атмосферное давление.
Po - Атмосферное давление - измеренное на уровне метеостанции атмосферное давление.
Tmin - Минимальная температура - минимум температуры воздуха на высоте 2 м над землей.
Tmax - Максимальная температура - максимум температуры воздуха на высоте 2 м над землей.
R - Количество осадков - Количество выпавших осадков за период времени, мм. При наведении курсора мыши на число - период времени, за который выпало указанное количество осадков.
R24 - Количество осадков - Количество выпавших осадков за 24 часа, мм.
S - Снежный покров - Высота снежного покрова, см. При наведении курсора мыши на число - состояние снежного покрова и степень покрытия местности в баллах.